Weather History for Provo, UT

Change the Weather History Date:

Saturday, November 17, 2012

  Actual Average Record
Temperature  
Mean Temperature 44 °F -  
Max Temperature 51 °F 45 °F 66 °F (1999)
Min Temperature 37 °F 28 °F 15 °F (2000)
Degree Days  
Heating Degree Days 21    
Moisture  
Dew Point 40 °F    
Average Humidity 88    
Maximum Humidity 100    
Minimum Humidity 76    
Precipitation  
Precipitation 0.11 in - - ()
Sea Level Pressure  
Sea Level Pressure 30.08 in    
Wind  
Wind Speed 4 mph (SE)    
Max Wind Speed 14 mph    
Max Gust Speed -    
Visibility 12 miles    
Events      
Averages and records for this station are not official NWS values.
T = Trace of Precipitation, MM = Missing Value Source: NWS Daily Summary

Daily Weather History Graph

Daily Weather History Graph

Search for Another Location

Airport:

Trip Planner

Search our weather history database for the weather conditions in past years. The results will help you decide how hot, cold, wet, or windy it might be!

Date:

Astronomy

Nov. 17, 2012 Rise Set
Actual Time 7:15 AM MST 5:08 PM MST
Civil Twilight 6:46 AM MST 5:37 PM MST
Nautical Twilight 6:13 AM MST 6:10 PM MST
Astronomical Twilight 5:40 AM MST 6:42 PM MST
Moon 11:02 AM MST 9:22 PM MST
Length of Visible Light 10h 51m
Length of Day
9h 52m
Waxing Crescent, 21% of the Moon is Illuminated
Nov 17
Waxing Crescent
Nov 20
First Quarter
Nov 28
Full
Dec 6
Last Quarter
Dec 13
New

Hourly Weather History & Observations

Time (MST) Temp. Windchill Dew Point Humidity Pressure Visibility Wind Dir Wind Speed Gust Speed Precip Events Conditions
12:15 AM 39.2 °F - 37.4 °F 93% 30.13 in 10.0 mi Calm Calm - N/A   Overcast
12:35 AM 39.2 °F - 35.6 °F 87% 30.13 in 10.0 mi Calm Calm - N/A   Overcast
12:55 AM 39.2 °F - 37.4 °F 93% 30.13 in 10.0 mi Calm Calm - N/A   Overcast
1:15 AM 39.2 °F - 37.4 °F 93% 30.12 in 10.0 mi Calm Calm - N/A   Overcast
1:35 AM 37.4 °F - 35.6 °F 93% 30.12 in 10.0 mi Calm Calm - N/A   Overcast
1:55 AM 39.2 °F 35.9 °F 37.4 °F 93% 30.12 in 10.0 mi SSE 4.6 mph - N/A   Overcast
2:15 AM 37.4 °F 33.8 °F 37.4 °F 100% 30.13 in 10.0 mi South 4.6 mph - N/A   Overcast
2:35 AM 39.2 °F 35.9 °F 35.6 °F 87% 30.13 in 10.0 mi South 4.6 mph - N/A   Mostly Cloudy
2:55 AM 39.2 °F - 37.4 °F 93% 30.13 in 10.0 mi Calm Calm - N/A   Partly Cloudy
3:15 AM 39.2 °F 35.9 °F 37.4 °F 93% 30.13 in 10.0 mi East 4.6 mph - 0.01 in   Mostly Cloudy
3:35 AM 41.0 °F 34.3 °F 37.4 °F 87% 30.12 in 10.0 mi SE 11.5 mph - 0.01 in   Mostly Cloudy
4:15 AM 41.0 °F 35.2 °F 39.2 °F 93% 30.12 in 10.0 mi SSE 9.2 mph - N/A   Mostly Cloudy
4:35 AM 41.0 °F 35.2 °F 39.2 °F 93% 30.12 in 10.0 mi SE 9.2 mph - N/A   Mostly Cloudy
4:55 AM 42.8 °F 37.5 °F 39.2 °F 87% 30.12 in 10.0 mi SE 9.2 mph - N/A   Mostly Cloudy
5:15 AM 42.8 °F 37.0 °F 39.2 °F 87% 30.12 in 10.0 mi SSE 10.4 mph - N/A   Mostly Cloudy
5:35 AM 41.0 °F 34.3 °F 37.4 °F 87% 30.11 in 10.0 mi SE 11.5 mph - N/A   Mostly Cloudy
5:55 AM 42.8 °F 36.6 °F 39.2 °F 87% 30.12 in 10.0 mi SE 11.5 mph - N/A   Overcast
6:35 AM 41.0 °F 39.0 °F 39.2 °F 93% 30.11 in 10.0 mi NNE 3.5 mph - 0.01 in   Mostly Cloudy
6:47 AM 42.8 °F - 39.2 °F 87% 30.11 in 15.0 mi Calm Calm - N/A   Mostly Cloudy
7:47 AM 41.0 °F 35.8 °F 37.4 °F 87% 30.11 in 15.0 mi ESE 8.1 mph - N/A   Mostly Cloudy
8:47 AM 42.8 °F 40.1 °F 39.2 °F 87% 30.12 in 15.0 mi East 4.6 mph - N/A   Mostly Cloudy
9:52 AM 44.6 °F 39.7 °F 39.2 °F 81% 30.11 in 15.0 mi ESE 9.2 mph - N/A   Mostly Cloudy
10:47 AM 46.4 °F 43.5 °F 41.0 °F 81% 30.11 in 15.0 mi SSW 5.8 mph - N/A   Mostly Cloudy
11:54 AM 44.6 °F 43.1 °F 41.0 °F 87% 30.09 in 15.0 mi Variable 3.5 mph - N/A   Mostly Cloudy
12:59 PM 50.0 °F - 44.6 °F 82% 30.07 in 15.0 mi Calm Calm - N/A   Mostly Cloudy
1:51 PM 46.4 °F 42.9 °F 44.6 °F 93% 30.05 in 15.0 mi East 6.9 mph - N/A   Mostly Cloudy
2:50 PM 51.8 °F - 44.6 °F 76% 30.03 in 15.0 mi Calm Calm - N/A   Mostly Cloudy
3:50 PM 50.0 °F - 44.6 °F 82% 30.02 in 15.0 mi Variable 6.9 mph - N/A   Mostly Cloudy
4:56 PM 48.2 °F - 42.8 °F 82% 30.01 in 15.0 mi Calm Calm - N/A   Mostly Cloudy
5:47 PM 48.2 °F - 42.8 °F 82% 30.03 in 15.0 mi ESE 12.7 mph - N/A   Mostly Cloudy
6:55 PM 46.4 °F 42.9 °F 41.0 °F 81% 30.02 in 15.0 mi East 6.9 mph - N/A   Mostly Cloudy
7:57 PM 46.4 °F 42.4 °F 39.2 °F 76% 30.01 in 15.0 mi SE 8.1 mph - N/A   Mostly Cloudy
8:55 PM 46.4 °F 40.4 °F 39.2 °F 76% 30.02 in 15.0 mi SE 13.8 mph - N/A   Mostly Cloudy
9:15 PM 46.4 °F 40.7 °F 39.2 °F 76% 30.04 in 10.0 mi SSE 12.7 mph - N/A   Overcast
9:35 PM 46.4 °F 42.9 °F 41.0 °F 81% 30.04 in 10.0 mi SE 6.9 mph - 0.04 in   Overcast
9:55 PM 44.6 °F 41.4 °F 42.8 °F 93% 30.04 in 10.0 mi East 5.8 mph - 0.07 in   Overcast
10:15 PM 44.6 °F 41.4 °F 42.8 °F 93% 30.04 in 10.0 mi East 5.8 mph - 0.02 in   Overcast
10:35 PM 44.6 °F 41.4 °F 42.8 °F 93% 30.04 in 10.0 mi ENE 5.8 mph - 0.02 in   Overcast
10:55 PM 44.6 °F 41.4 °F 42.8 °F 93% 30.03 in 10.0 mi NE 5.8 mph - 0.02 in   Overcast
11:15 PM 44.6 °F 42.2 °F 42.8 °F 93% 30.03 in 10.0 mi ENE 4.6 mph - N/A   Overcast
11:35 PM 44.6 °F 42.2 °F 42.8 °F 93% 30.03 in 10.0 mi SSE 4.6 mph - N/A   Mostly Cloudy
11:55 PM 44.6 °F 43.1 °F 41.0 °F 87% 30.03 in 10.0 mi South 3.5 mph - N/A   Overcast